Year,Month,Day,Hour,Minute,Value (Times are PST for temperature in C)
2015,03,27,00,00,10.80
2015,03,27,00,01,10.80
2015,03,27,00,02,10.80
2015,03,27,00,03,10.80
2015,03,27,00,04,10.80
2015,03,27,00,05,10.80
2015,03,27,00,06,10.80
2015,03,27,00,07,10.80
2015,03,27,00,08,10.80
2015,03,27,00,09,10.80
2015,03,27,00,10,10.80
2015,03,27,00,11,10.80
2015,03,27,00,12,10.80
2015,03,27,00,13,10.90
2015,03,27,00,14,10.90
2015,03,27,00,15,10.90
2015,03,27,00,16,10.90
2015,03,27,00,17,10.90
2015,03,27,00,18,10.90
2015,03,27,00,19,10.90
2015,03,27,00,20,10.90
2015,03,27,00,21,10.90
2015,03,27,00,22,10.90
2015,03,27,00,23,10.90
2015,03,27,00,24,10.90
2015,03,27,00,25,10.90
2015,03,27,00,26,10.90
2015,03,27,00,27,10.90
2015,03,27,00,28,10.90
2015,03,27,00,29,11.00
2015,03,27,00,30,11.00
2015,03,27,00,31,11.00
2015,03,27,00,32,11.00
2015,03,27,00,33,10.90
2015,03,27,00,34,10.90
2015,03,27,00,35,10.90
2015,03,27,00,36,10.90
2015,03,27,00,37,10.90
2015,03,27,00,38,10.80
2015,03,27,00,39,10.80
2015,03,27,00,40,10.80
2015,03,27,00,41,10.70
2015,03,27,00,42,10.70
2015,03,27,00,43,10.70
2015,03,27,00,44,10.70
2015,03,27,00,45,10.70
2015,03,27,00,46,10.70
2015,03,27,00,47,10.70
2015,03,27,00,48,10.70
2015,03,27,00,49,10.70
2015,03,27,00,50,10.70
2015,03,27,00,51,10.70
2015,03,27,00,52,10.70
2015,03,27,00,53,10.70
2015,03,27,00,54,10.70
2015,03,27,00,55,10.70
2015,03,27,00,56,10.80
2015,03,27,00,57,10.80
2015,03,27,00,58,10.70
2015,03,27,00,59,10.80
2015,03,27,01,00,10.80
2015,03,27,01,01,10.80
2015,03,27,01,02,10.80
2015,03,27,01,03,10.80
2015,03,27,01,04,10.80
2015,03,27,01,05,10.90
2015,03,27,01,06,10.90
2015,03,27,01,07,10.90
2015,03,27,01,08,11.00
2015,03,27,01,09,11.00
2015,03,27,01,10,11.10
2015,03,27,01,11,11.10
2015,03,27,01,12,11.20
2015,03,27,01,13,11.20
2015,03,27,01,14,11.20
2015,03,27,01,15,11.20
2015,03,27,01,16,11.30
2015,03,27,01,17,11.30
2015,03,27,01,18,11.30
2015,03,27,01,19,11.30
2015,03,27,01,20,11.20
2015,03,27,01,21,11.00
2015,03,27,01,22,10.80
2015,03,27,01,23,10.60
2015,03,27,01,24,10.50
2015,03,27,01,25,10.30
2015,03,27,01,26,10.10
2015,03,27,01,27,10.00
2015,03,27,01,28,9.90
2015,03,27,01,29,9.90
2015,03,27,01,30,9.90
2015,03,27,01,31,9.90
2015,03,27,01,32,10.00
2015,03,27,01,33,10.00
2015,03,27,01,34,10.00
2015,03,27,01,35,10.10
2015,03,27,01,36,10.20
2015,03,27,01,37,10.30
2015,03,27,01,38,10.40
2015,03,27,01,39,10.50
2015,03,27,01,40,10.60
2015,03,27,01,41,10.70
2015,03,27,01,42,10.70
2015,03,27,01,43,10.80
2015,03,27,01,44,10.80
2015,03,27,01,45,10.90
2015,03,27,01,46,11.00
2015,03,27,01,47,11.00
2015,03,27,01,48,11.00
2015,03,27,01,49,11.00
2015,03,27,01,50,10.90
2015,03,27,01,51,10.90
2015,03,27,01,52,10.90
2015,03,27,01,53,10.90
2015,03,27,01,54,10.90
2015,03,27,01,55,10.90
2015,03,27,01,56,10.80
2015,03,27,01,57,10.80
2015,03,27,01,58,10.80
2015,03,27,01,59,10.70
2015,03,27,02,00,10.60
2015,03,27,02,01,10.50
2015,03,27,02,02,10.40
2015,03,27,02,03,10.30
2015,03,27,02,04,10.30
2015,03,27,02,05,10.20
2015,03,27,02,06,10.10
2015,03,27,02,07,10.00
2015,03,27,02,08,9.90
2015,03,27,02,09,9.80
2015,03,27,02,10,9.80
2015,03,27,02,11,9.70
2015,03,27,02,12,9.70
2015,03,27,02,13,9.70
2015,03,27,02,14,9.60
2015,03,27,02,15,9.60
2015,03,27,02,16,9.60
2015,03,27,02,17,9.60
2015,03,27,02,18,9.70
2015,03,27,02,19,9.70
2015,03,27,02,20,9.80
2015,03,27,02,21,9.80
2015,03,27,02,22,9.90
2015,03,27,02,23,10.00
2015,03,27,02,24,10.00
2015,03,27,02,25,10.10
2015,03,27,02,26,10.10
2015,03,27,02,27,10.20
2015,03,27,02,28,10.20
2015,03,27,02,29,10.20
2015,03,27,02,30,10.20
2015,03,27,02,31,10.20
2015,03,27,02,32,10.20
2015,03,27,02,33,10.20
2015,03,27,02,34,10.20
2015,03,27,02,35,10.30
2015,03,27,02,36,10.30
2015,03,27,02,37,10.40
2015,03,27,02,38,10.50
2015,03,27,02,39,10.50
2015,03,27,02,40,10.60
2015,03,27,02,41,10.60
2015,03,27,02,42,10.70
2015,03,27,02,43,10.70
2015,03,27,02,44,10.70
2015,03,27,02,45,10.70
2015,03,27,02,46,10.70
2015,03,27,02,47,10.70
2015,03,27,02,48,10.60
2015,03,27,02,49,10.60
2015,03,27,02,50,10.50
2015,03,27,02,51,10.50
2015,03,27,02,52,10.50
2015,03,27,02,53,10.50
2015,03,27,02,54,10.60
2015,03,27,02,55,10.60
2015,03,27,02,56,10.60
2015,03,27,02,57,10.70
2015,03,27,02,58,10.70
2015,03,27,02,59,10.70
2015,03,27,03,00,10.70
2015,03,27,03,01,10.70
2015,03,27,03,02,10.80
2015,03,27,03,03,10.90
2015,03,27,03,04,10.90
2015,03,27,03,05,10.90
2015,03,27,03,06,10.90
2015,03,27,03,07,10.90
2015,03,27,03,08,10.90
2015,03,27,03,09,10.90
2015,03,27,03,10,10.90
2015,03,27,03,11,10.90
2015,03,27,03,12,10.90
2015,03,27,03,13,10.90
2015,03,27,03,14,10.90
2015,03,27,03,15,11.00
2015,03,27,03,16,10.90
2015,03,27,03,17,10.90
2015,03,27,03,18,10.90
2015,03,27,03,19,10.90
2015,03,27,03,20,10.90
2015,03,27,03,21,10.90
2015,03,27,03,22,10.90
2015,03,27,03,23,10.90
2015,03,27,03,24,10.90
2015,03,27,03,25,10.90
2015,03,27,03,26,10.90
2015,03,27,03,27,10.90
2015,03,27,03,28,10.90
2015,03,27,03,29,10.90
2015,03,27,03,30,10.90
2015,03,27,03,31,10.90
2015,03,27,03,32,10.90
2015,03,27,03,33,10.90
2015,03,27,03,34,10.90
2015,03,27,03,35,10.90
2015,03,27,03,36,10.90
2015,03,27,03,37,10.90
2015,03,27,03,38,11.00
2015,03,27,03,39,11.00
2015,03,27,03,40,11.10
2015,03,27,03,41,11.10
2015,03,27,03,42,11.20
2015,03,27,03,43,11.20
2015,03,27,03,44,11.30
2015,03,27,03,45,11.30
2015,03,27,03,46,11.30
2015,03,27,03,47,11.40
2015,03,27,03,48,11.40
2015,03,27,03,49,11.30
2015,03,27,03,50,11.30
2015,03,27,03,51,11.20
2015,03,27,03,52,11.20
2015,03,27,03,53,11.20
2015,03,27,03,54,11.20
2015,03,27,03,55,11.20
2015,03,27,03,56,11.20
2015,03,27,03,57,11.20
2015,03,27,03,58,11.20
2015,03,27,03,59,11.20
2015,03,27,04,00,11.20
2015,03,27,04,01,11.20
2015,03,27,04,02,11.20
2015,03,27,04,03,11.20
2015,03,27,04,04,11.20
2015,03,27,04,05,11.20
2015,03,27,04,06,11.20
2015,03,27,04,07,11.20
2015,03,27,04,08,11.20
2015,03,27,04,09,11.20
2015,03,27,04,10,11.20
2015,03,27,04,11,11.20
2015,03,27,04,12,11.20
2015,03,27,04,13,11.20
2015,03,27,04,14,11.20
2015,03,27,04,15,11.10
2015,03,27,04,16,11.10
2015,03,27,04,17,11.10
2015,03,27,04,18,11.10
2015,03,27,04,19,11.10
2015,03,27,04,20,11.10
2015,03,27,04,21,11.10
2015,03,27,04,22,11.10
2015,03,27,04,23,11.10
2015,03,27,04,24,11.00
2015,03,27,04,25,11.10
2015,03,27,04,26,11.10
2015,03,27,04,27,11.10
2015,03,27,04,28,11.20
2015,03,27,04,29,11.20
2015,03,27,04,30,11.20
2015,03,27,04,31,11.20
2015,03,27,04,32,11.20
2015,03,27,04,33,11.20
2015,03,27,04,34,11.20
2015,03,27,04,35,11.10
2015,03,27,04,36,11.10
2015,03,27,04,37,11.10
2015,03,27,04,38,11.00
2015,03,27,04,39,11.00
2015,03,27,04,40,10.90
2015,03,27,04,41,10.90
2015,03,27,04,42,10.80
2015,03,27,04,43,10.80
2015,03,27,04,44,10.80
2015,03,27,04,45,10.70
2015,03,27,04,46,10.70
2015,03,27,04,47,10.70
2015,03,27,04,48,10.70
2015,03,27,04,49,10.70
2015,03,27,04,50,10.70
2015,03,27,04,51,10.70
2015,03,27,04,52,10.70
2015,03,27,04,53,10.70
2015,03,27,04,54,10.70
2015,03,27,04,55,10.70
2015,03,27,04,56,10.70
2015,03,27,04,57,10.70
2015,03,27,04,58,10.70
2015,03,27,04,59,10.80
2015,03,27,05,00,10.80
2015,03,27,05,01,10.80
2015,03,27,05,02,10.80
2015,03,27,05,03,10.90
2015,03,27,05,04,10.90
2015,03,27,05,05,10.90
2015,03,27,05,06,10.80
2015,03,27,05,07,10.80
2015,03,27,05,08,10.80
2015,03,27,05,09,10.80
2015,03,27,05,10,10.90
2015,03,27,05,11,10.90
2015,03,27,05,12,11.00
2015,03,27,05,13,11.00
2015,03,27,05,14,11.00
2015,03,27,05,15,11.00
2015,03,27,05,16,11.10
2015,03,27,05,17,11.10
2015,03,27,05,18,11.10
2015,03,27,05,19,11.10
2015,03,27,05,20,11.00
2015,03,27,05,21,11.00
2015,03,27,05,22,11.00
2015,03,27,05,23,11.00
2015,03,27,05,24,11.00
2015,03,27,05,25,11.00
2015,03,27,05,26,11.10
2015,03,27,05,27,11.10
2015,03,27,05,28,11.10
2015,03,27,05,29,11.10
2015,03,27,05,30,11.10
2015,03,27,05,31,11.10
2015,03,27,05,32,11.10
2015,03,27,05,33,11.10
2015,03,27,05,34,11.20
2015,03,27,05,35,11.20
2015,03,27,05,36,11.20
2015,03,27,05,37,11.30
2015,03,27,05,38,11.30
2015,03,27,05,39,11.30
2015,03,27,05,40,11.40
2015,03,27,05,41,11.40
2015,03,27,05,42,11.40
2015,03,27,05,43,11.40
2015,03,27,05,44,11.40
2015,03,27,05,45,11.40
2015,03,27,05,46,11.30
2015,03,27,05,47,11.30
2015,03,27,05,48,11.30
2015,03,27,05,49,11.20
2015,03,27,05,50,11.20
2015,03,27,05,51,11.20
2015,03,27,05,52,11.20
2015,03,27,05,53,11.20
2015,03,27,05,54,11.20
2015,03,27,05,55,11.20
2015,03,27,05,56,11.20
2015,03,27,05,57,11.20
2015,03,27,05,58,11.20
2015,03,27,05,59,11.20
2015,03,27,06,00,11.20
2015,03,27,06,01,11.30
2015,03,27,06,02,11.20
2015,03,27,06,03,11.20
2015,03,27,06,04,11.20
2015,03,27,06,05,11.20
2015,03,27,06,06,11.20
2015,03,27,06,07,11.20
2015,03,27,06,08,11.20
2015,03,27,06,09,11.20
2015,03,27,06,10,11.10
2015,03,27,06,11,11.10
2015,03,27,06,12,11.20
2015,03,27,06,13,11.20
2015,03,27,06,14,11.10
2015,03,27,06,15,11.20
2015,03,27,06,16,11.20
2015,03,27,06,17,11.20
2015,03,27,06,18,11.20
2015,03,27,06,19,11.20
2015,03,27,06,20,11.20
2015,03,27,06,21,11.20
2015,03,27,06,22,11.20
2015,03,27,06,23,11.20
2015,03,27,06,24,11.20
2015,03,27,06,25,11.20
2015,03,27,06,26,11.20
2015,03,27,06,27,11.20
2015,03,27,06,28,11.20
2015,03,27,06,29,11.20
2015,03,27,06,30,11.20
2015,03,27,06,31,11.20
2015,03,27,06,32,11.20
2015,03,27,06,33,11.20
2015,03,27,06,34,11.20
2015,03,27,06,35,11.20
2015,03,27,06,36,11.20
2015,03,27,06,37,11.10
2015,03,27,06,38,11.10
2015,03,27,06,39,11.00
2015,03,27,06,40,11.00
2015,03,27,06,41,11.00
2015,03,27,06,42,10.90
2015,03,27,06,43,10.90
2015,03,27,06,44,10.90
2015,03,27,06,45,10.80
2015,03,27,06,46,10.80
2015,03,27,06,47,10.80
2015,03,27,06,48,10.80
2015,03,27,06,49,10.80
2015,03,27,06,50,10.80
2015,03,27,06,51,10.80
2015,03,27,06,52,10.80
2015,03,27,06,53,10.80
2015,03,27,06,54,10.80
2015,03,27,06,55,10.80
2015,03,27,06,56,10.80
2015,03,27,06,57,10.70
2015,03,27,06,58,10.70
2015,03,27,06,59,10.60
2015,03,27,07,00,10.60
2015,03,27,07,01,10.50
2015,03,27,07,02,10.50
2015,03,27,07,03,10.50
2015,03,27,07,04,10.40
2015,03,27,07,05,10.40
2015,03,27,07,06,10.40
2015,03,27,07,07,10.30
2015,03,27,07,08,10.30
2015,03,27,07,09,10.30
2015,03,27,07,10,10.30
2015,03,27,07,11,10.30
2015,03,27,07,12,10.20
2015,03,27,07,13,10.20
2015,03,27,07,14,10.20
2015,03,27,07,15,10.20
2015,03,27,07,16,10.20
2015,03,27,07,17,10.10
2015,03,27,07,18,10.10
2015,03,27,07,19,10.10
2015,03,27,07,20,10.10
2015,03,27,07,21,10.00
2015,03,27,07,22,10.00
2015,03,27,07,23,9.90
2015,03,27,07,24,9.90
2015,03,27,07,25,9.90
2015,03,27,07,26,9.90
2015,03,27,07,27,9.90
2015,03,27,07,28,9.90
2015,03,27,07,29,9.90
2015,03,27,07,30,9.90
2015,03,27,07,31,9.90
2015,03,27,07,32,9.90
2015,03,27,07,33,9.90
2015,03,27,07,34,9.90
2015,03,27,07,35,9.90
2015,03,27,07,36,9.90
2015,03,27,07,37,9.90
2015,03,27,07,38,9.90
2015,03,27,07,39,9.90
2015,03,27,07,40,9.90
2015,03,27,07,41,9.90
2015,03,27,07,42,9.90
2015,03,27,07,43,9.90
2015,03,27,07,44,9.90
2015,03,27,07,45,9.90
2015,03,27,07,46,9.90
2015,03,27,07,47,9.90
2015,03,27,07,48,9.90
2015,03,27,07,49,9.80
2015,03,27,07,50,9.80
2015,03,27,07,51,9.80
2015,03,27,07,52,9.80
2015,03,27,07,53,9.80
2015,03,27,07,54,9.80
2015,03,27,07,55,9.80
2015,03,27,07,56,9.80
2015,03,27,07,57,9.80
2015,03,27,07,58,9.80
2015,03,27,07,59,9.80
2015,03,27,08,00,9.80
2015,03,27,08,01,9.80
2015,03,27,08,02,9.90
2015,03,27,08,03,9.90
2015,03,27,08,04,9.90
2015,03,27,08,05,10.00
2015,03,27,08,06,10.00
2015,03,27,08,07,10.00
2015,03,27,08,08,10.10
2015,03,27,08,09,10.10
2015,03,27,08,10,10.10
2015,03,27,08,11,10.10
2015,03,27,08,12,10.00
2015,03,27,08,13,10.00
2015,03,27,08,14,10.00
2015,03,27,08,15,9.90
2015,03,27,08,16,9.80
2015,03,27,08,17,9.80
2015,03,27,08,18,9.70
2015,03,27,08,19,9.70
2015,03,27,08,20,9.70
2015,03,27,08,21,9.60
2015,03,27,08,22,9.60
2015,03,27,08,23,9.60
2015,03,27,08,24,9.60
2015,03,27,08,25,9.60
2015,03,27,08,26,9.60
2015,03,27,08,27,9.60
2015,03,27,08,28,9.70
2015,03,27,08,29,9.70
2015,03,27,08,30,9.70
2015,03,27,08,31,9.70
2015,03,27,08,32,9.80
2015,03,27,08,33,9.80
2015,03,27,08,34,9.80
2015,03,27,08,35,9.80
2015,03,27,08,36,9.80
2015,03,27,08,37,9.80
2015,03,27,08,38,9.80
2015,03,27,08,39,9.90
2015,03,27,08,40,9.90
2015,03,27,08,41,9.90
2015,03,27,08,42,10.00
2015,03,27,08,43,10.10
2015,03,27,08,44,10.10
2015,03,27,08,45,10.10
2015,03,27,08,46,10.20
2015,03,27,08,47,10.20
2015,03,27,08,48,10.20
2015,03,27,08,49,10.20
2015,03,27,08,50,10.20
2015,03,27,08,51,10.20
2015,03,27,08,52,10.20
2015,03,27,08,53,10.20
2015,03,27,08,54,10.20
2015,03,27,08,55,10.20
2015,03,27,08,56,10.30
2015,03,27,08,57,10.30
2015,03,27,08,58,10.30
2015,03,27,08,59,10.30
2015,03,27,09,00,10.30
2015,03,27,09,01,10.30
2015,03,27,09,02,10.30
2015,03,27,09,03,10.30
2015,03,27,09,04,10.40
2015,03,27,09,05,10.40
2015,03,27,09,06,10.40
2015,03,27,09,07,10.40
2015,03,27,09,08,10.40
2015,03,27,09,09,10.40
2015,03,27,09,10,10.50
2015,03,27,09,11,10.50
2015,03,27,09,12,10.50
2015,03,27,09,13,10.60
2015,03,27,09,14,10.60
2015,03,27,09,15,10.70
2015,03,27,09,16,10.70
2015,03,27,09,17,10.80
2015,03,27,09,18,10.80
2015,03,27,09,19,10.80
2015,03,27,09,20,10.90
2015,03,27,09,21,11.00
2015,03,27,09,22,11.00
2015,03,27,09,23,11.10
2015,03,27,09,24,11.10
2015,03,27,09,25,11.10
2015,03,27,09,26,11.20
2015,03,27,09,27,11.20
2015,03,27,09,28,11.20
2015,03,27,09,29,11.20
2015,03,27,09,30,11.20
2015,03,27,09,31,11.30
2015,03,27,09,32,11.30
2015,03,27,09,33,11.30
2015,03,27,09,34,11.40
2015,03,27,09,35,11.40
2015,03,27,09,36,11.40
2015,03,27,09,37,11.50
2015,03,27,09,38,11.60
2015,03,27,09,39,11.60
2015,03,27,09,40,11.60
2015,03,27,09,41,11.60
2015,03,27,09,42,11.60
2015,03,27,09,43,11.60
2015,03,27,09,44,11.60
2015,03,27,09,45,11.50
2015,03,27,09,46,11.50
2015,03,27,09,47,11.40
2015,03,27,09,48,11.40
2015,03,27,09,49,11.40
2015,03,27,09,50,11.40
2015,03,27,09,51,11.40
2015,03,27,09,52,11.40
2015,03,27,09,53,11.40
2015,03,27,09,54,11.40
2015,03,27,09,55,11.40
2015,03,27,09,56,11.50
2015,03,27,09,57,11.50
2015,03,27,09,58,11.50
2015,03,27,09,59,11.60
2015,03,27,10,00,11.60
2015,03,27,10,01,11.60
2015,03,27,10,02,11.60
2015,03,27,10,03,11.60
2015,03,27,10,04,11.60
2015,03,27,10,05,11.60
2015,03,27,10,06,11.60
2015,03,27,10,07,11.70
2015,03,27,10,08,11.70
2015,03,27,10,09,11.70
2015,03,27,10,10,11.70
2015,03,27,10,11,11.80
2015,03,27,10,12,11.80
2015,03,27,10,13,11.80
2015,03,27,10,14,11.80
2015,03,27,10,15,11.80
2015,03,27,10,16,11.80
2015,03,27,10,17,11.80
2015,03,27,10,18,11.80
2015,03,27,10,19,11.80
2015,03,27,10,20,11.80
2015,03,27,10,21,11.80
2015,03,27,10,22,11.70
2015,03,27,10,23,11.70
2015,03,27,10,24,11.70
2015,03,27,10,25,11.60
2015,03,27,10,26,11.60
2015,03,27,10,27,11.60
2015,03,27,10,28,11.60
2015,03,27,10,29,11.60
2015,03,27,10,30,11.60
2015,03,27,10,31,11.60
2015,03,27,10,32,11.60
2015,03,27,10,33,11.60
2015,03,27,10,34,11.60
2015,03,27,10,35,11.50
2015,03,27,10,36,11.50
2015,03,27,10,37,11.40
2015,03,27,10,38,11.40
2015,03,27,10,39,11.40
2015,03,27,10,40,11.40
2015,03,27,10,41,11.40
2015,03,27,10,42,11.40
2015,03,27,10,43,11.40
2015,03,27,10,44,11.40
2015,03,27,10,45,11.40
2015,03,27,10,46,11.40
2015,03,27,10,47,11.40
2015,03,27,10,48,11.40
2015,03,27,10,49,11.40
2015,03,27,10,50,11.40
2015,03,27,10,51,11.40
2015,03,27,10,52,11.40
2015,03,27,10,53,11.50
2015,03,27,10,54,11.50
2015,03,27,10,55,11.60
2015,03,27,10,56,11.60
2015,03,27,10,57,11.60
2015,03,27,10,58,11.70
2015,03,27,10,59,11.70
2015,03,27,11,00,11.70
2015,03,27,11,01,11.80
2015,03,27,11,02,11.80
2015,03,27,11,03,11.90
2015,03,27,11,04,11.90
2015,03,27,11,05,12.00
2015,03,27,11,06,12.10
2015,03,27,11,07,12.10
2015,03,27,11,08,12.10
2015,03,27,11,09,12.20
2015,03,27,11,10,12.30
2015,03,27,11,11,12.30
2015,03,27,11,12,12.30
2015,03,27,11,13,12.30
2015,03,27,11,14,12.30
2015,03,27,11,15,12.30
2015,03,27,11,16,12.30
2015,03,27,11,17,12.30
2015,03,27,11,18,12.30
2015,03,27,11,19,12.30
2015,03,27,11,20,12.40
2015,03,27,11,21,12.40
2015,03,27,11,22,12.40
2015,03,27,11,23,12.40
2015,03,27,11,24,12.40
2015,03,27,11,25,12.50
2015,03,27,11,26,12.50
2015,03,27,11,27,12.60
2015,03,27,11,28,12.60
2015,03,27,11,29,12.60
2015,03,27,11,30,12.70
2015,03,27,11,31,12.70
2015,03,27,11,32,12.60
2015,03,27,11,33,12.60
2015,03,27,11,34,12.60
2015,03,27,11,35,12.60
2015,03,27,11,36,12.50
2015,03,27,11,37,12.40
2015,03,27,11,38,12.40
2015,03,27,11,39,12.40
2015,03,27,11,40,12.40
2015,03,27,11,41,12.40
2015,03,27,11,42,12.50
2015,03,27,11,43,12.50
2015,03,27,11,44,12.60
2015,03,27,11,45,12.60
2015,03,27,11,46,12.60
2015,03,27,11,47,12.60
2015,03,27,11,48,12.70
2015,03,27,11,49,12.80
2015,03,27,11,50,12.80
2015,03,27,11,51,12.90
2015,03,27,11,52,12.90
2015,03,27,11,53,12.80
2015,03,27,11,54,12.80
2015,03,27,11,55,12.80
2015,03,27,11,56,12.80
2015,03,27,11,57,12.80
2015,03,27,11,58,12.90
2015,03,27,11,59,12.90
2015,03,27,12,00,13.00
2015,03,27,12,01,13.10
2015,03,27,12,02,13.20
2015,03,27,12,03,13.30
2015,03,27,12,04,13.30
2015,03,27,12,05,13.30
2015,03,27,12,06,13.30
2015,03,27,12,07,13.30
2015,03,27,12,08,13.40
2015,03,27,12,09,13.40
2015,03,27,12,10,13.50
2015,03,27,12,11,13.40
2015,03,27,12,12,13.40
2015,03,27,12,13,13.40
2015,03,27,12,14,13.40
2015,03,27,12,15,13.40
2015,03,27,12,16,13.40
2015,03,27,12,17,13.40
2015,03,27,12,18,13.30
2015,03,27,12,19,13.30
2015,03,27,12,20,13.40
2015,03,27,12,21,13.30
2015,03,27,12,22,13.20
2015,03,27,12,23,13.10
2015,03,27,12,24,13.10
2015,03,27,12,25,13.10
2015,03,27,12,26,13.10
2015,03,27,12,27,13.10
2015,03,27,12,28,13.10
2015,03,27,12,29,13.00
2015,03,27,12,30,13.00
2015,03,27,12,31,13.10
2015,03,27,12,32,13.10
2015,03,27,12,33,13.20
2015,03,27,12,34,13.30
2015,03,27,12,35,13.30
2015,03,27,12,36,13.30
2015,03,27,12,37,13.30
2015,03,27,12,38,13.40
2015,03,27,12,39,13.40
2015,03,27,12,40,13.40
2015,03,27,12,41,13.50
2015,03,27,12,42,13.60
2015,03,27,12,43,13.60
2015,03,27,12,44,13.70
2015,03,27,12,45,13.60
2015,03,27,12,46,13.60
2015,03,27,12,47,13.60
2015,03,27,12,48,13.60
2015,03,27,12,49,13.60
2015,03,27,12,50,13.70
2015,03,27,12,51,13.80
2015,03,27,12,52,13.90
2015,03,27,12,53,14.00
2015,03,27,12,54,14.10
2015,03,27,12,55,14.10
2015,03,27,12,56,14.20
2015,03,27,12,57,14.20
2015,03,27,12,58,14.30
2015,03,27,12,59,14.30
2015,03,27,13,00,14.30
2015,03,27,13,01,14.30
2015,03,27,13,02,14.30
2015,03,27,13,03,14.30
2015,03,27,13,04,14.30
2015,03,27,13,05,14.30
2015,03,27,13,06,14.40
2015,03,27,13,07,14.40
2015,03,27,13,08,14.50
2015,03,27,13,09,14.60
2015,03,27,13,10,14.60
2015,03,27,13,11,14.70
2015,03,27,13,12,14.80
2015,03,27,13,13,14.90
2015,03,27,13,14,14.90
2015,03,27,13,15,14.90
2015,03,27,13,16,14.80
2015,03,27,13,17,14.80
2015,03,27,13,18,14.90
2015,03,27,13,19,14.90
2015,03,27,13,20,14.90
2015,03,27,13,21,14.80
2015,03,27,13,22,14.80
2015,03,27,13,23,14.80
2015,03,27,13,24,14.80
2015,03,27,13,25,14.80
2015,03,27,13,26,14.70
2015,03,27,13,27,14.60
2015,03,27,13,28,14.60
2015,03,27,13,29,14.60
2015,03,27,13,30,14.60
2015,03,27,13,31,14.60
2015,03,27,13,32,14.70
2015,03,27,13,33,14.70
2015,03,27,13,34,14.60
2015,03,27,13,35,14.50
2015,03,27,13,36,14.50
2015,03,27,13,37,14.50
2015,03,27,13,38,14.60
2015,03,27,13,39,14.60
2015,03,27,13,40,14.60
2015,03,27,13,41,14.60
2015,03,27,13,42,14.60
2015,03,27,13,43,14.50
2015,03,27,13,44,14.40
2015,03,27,13,45,14.30
2015,03,27,13,46,14.30
2015,03,27,13,47,14.30
2015,03,27,13,48,14.30
2015,03,27,13,49,14.40
2015,03,27,13,50,14.40
2015,03,27,13,51,14.40
2015,03,27,13,52,14.40
2015,03,27,13,53,14.50
2015,03,27,13,54,14.50
2015,03,27,13,55,14.50
2015,03,27,13,56,14.40
2015,03,27,13,57,14.40
2015,03,27,13,58,14.40
2015,03,27,13,59,14.40
2015,03,27,14,00,14.40
2015,03,27,14,01,14.40
2015,03,27,14,02,14.30
2015,03,27,14,03,14.20
2015,03,27,14,04,14.20
2015,03,27,14,05,14.20
2015,03,27,14,06,14.20
2015,03,27,14,07,14.20
2015,03,27,14,08,14.20
2015,03,27,14,09,14.20
2015,03,27,14,10,14.20
2015,03,27,14,11,14.20
2015,03,27,14,12,14.30
2015,03,27,14,13,14.30
2015,03,27,14,14,14.30
2015,03,27,14,15,14.30
2015,03,27,14,16,14.30
2015,03,27,14,17,14.30
2015,03,27,14,18,14.40
2015,03,27,14,19,14.30
2015,03,27,14,20,14.20
2015,03,27,14,21,14.20
2015,03,27,14,22,14.10
2015,03,27,14,23,14.00
2015,03,27,14,24,14.00
2015,03,27,14,25,14.10
2015,03,27,14,26,14.10
2015,03,27,14,27,14.10
2015,03,27,14,28,14.10
2015,03,27,14,29,14.10
2015,03,27,14,30,14.10
2015,03,27,14,31,14.10
2015,03,27,14,32,14.10
2015,03,27,14,33,14.10
2015,03,27,14,34,14.10
2015,03,27,14,35,14.10
2015,03,27,14,36,14.10
2015,03,27,14,37,14.00
2015,03,27,14,38,13.90
2015,03,27,14,39,13.90
2015,03,27,14,40,13.90
2015,03,27,14,41,13.90
2015,03,27,14,42,13.80
2015,03,27,14,43,13.80
2015,03,27,14,44,13.80
2015,03,27,14,45,13.70
2015,03,27,14,46,13.70
2015,03,27,14,47,13.70
2015,03,27,14,48,13.70
2015,03,27,14,49,13.70
2015,03,27,14,50,13.70
2015,03,27,14,51,13.70
2015,03,27,14,52,13.60
2015,03,27,14,53,13.70
2015,03,27,14,54,13.70
2015,03,27,14,55,13.70
2015,03,27,14,56,13.70
2015,03,27,14,57,13.70
2015,03,27,14,58,13.70
2015,03,27,14,59,13.70
2015,03,27,15,00,13.70
2015,03,27,15,01,13.70
2015,03,27,15,02,13.70
2015,03,27,15,03,13.80
2015,03,27,15,04,13.90
2015,03,27,15,05,14.00
2015,03,27,15,06,14.00
2015,03,27,15,07,14.10
2015,03,27,15,08,14.20
2015,03,27,15,09,14.20
2015,03,27,15,10,14.10
2015,03,27,15,11,14.10
2015,03,27,15,12,14.00
2015,03,27,15,13,14.00
2015,03,27,15,14,13.90
2015,03,27,15,15,14.00
2015,03,27,15,16,14.00
2015,03,27,15,17,14.00
2015,03,27,15,18,14.00
2015,03,27,15,19,14.00
2015,03,27,15,20,14.10
2015,03,27,15,21,14.10
2015,03,27,15,22,14.10
2015,03,27,15,23,14.20
2015,03,27,15,24,14.20
2015,03,27,15,25,14.20
2015,03,27,15,26,14.30
2015,03,27,15,27,14.40
2015,03,27,15,28,14.40
2015,03,27,15,29,14.50
2015,03,27,15,30,14.60
2015,03,27,15,31,14.60
2015,03,27,15,32,14.50
2015,03,27,15,33,14.50
2015,03,27,15,34,14.50
2015,03,27,15,35,14.50
2015,03,27,15,36,14.60
2015,03,27,15,37,14.70
2015,03,27,15,38,14.70
2015,03,27,15,39,14.60
2015,03,27,15,40,14.60
2015,03,27,15,41,14.60
2015,03,27,15,42,14.60
2015,03,27,15,43,14.60
2015,03,27,15,44,14.60
2015,03,27,15,45,14.60
2015,03,27,15,46,14.60
2015,03,27,15,47,14.60
2015,03,27,15,48,14.60
2015,03,27,15,49,14.60
2015,03,27,15,50,14.60
2015,03,27,15,51,14.60
2015,03,27,15,52,14.60
2015,03,27,15,53,14.70
2015,03,27,15,54,14.70
2015,03,27,15,55,14.70
2015,03,27,15,56,14.60
2015,03,27,15,57,14.60
2015,03,27,15,58,14.60
2015,03,27,15,59,14.60
2015,03,27,16,00,14.60
2015,03,27,16,01,14.60
2015,03,27,16,02,14.50
2015,03,27,16,03,14.50
2015,03,27,16,04,14.50
2015,03,27,16,05,14.50
2015,03,27,16,06,14.60
2015,03,27,16,07,14.60
2015,03,27,16,08,14.60
2015,03,27,16,09,14.70
2015,03,27,16,10,14.70
2015,03,27,16,11,14.80
2015,03,27,16,12,14.80
2015,03,27,16,13,14.90
2015,03,27,16,14,15.00
2015,03,27,16,15,15.00
2015,03,27,16,16,15.00
2015,03,27,16,17,15.00
2015,03,27,16,18,15.00
2015,03,27,16,19,15.00
2015,03,27,16,20,15.00
2015,03,27,16,21,15.00
2015,03,27,16,22,15.00
2015,03,27,16,23,15.00
2015,03,27,16,24,15.00
2015,03,27,16,25,15.00
2015,03,27,16,26,15.00
2015,03,27,16,27,15.00
2015,03,27,16,28,15.00
2015,03,27,16,29,15.00
2015,03,27,16,30,15.00
2015,03,27,16,31,15.00
2015,03,27,16,32,15.00
2015,03,27,16,33,15.00
2015,03,27,16,34,15.00
2015,03,27,16,35,15.10
2015,03,27,16,36,15.20
2015,03,27,16,37,15.20
2015,03,27,16,38,15.30
2015,03,27,16,39,15.30
2015,03,27,16,40,15.30
2015,03,27,16,41,15.30
2015,03,27,16,42,15.40
2015,03,27,16,43,15.40
2015,03,27,16,44,15.40
2015,03,27,16,45,15.40
2015,03,27,16,46,15.40
2015,03,27,16,47,15.30
2015,03,27,16,48,15.20
2015,03,27,16,49,15.00
2015,03,27,16,50,15.00
2015,03,27,16,51,14.90
2015,03,27,16,52,14.70
2015,03,27,16,53,14.50
2015,03,27,16,54,14.40
2015,03,27,16,55,14.30
2015,03,27,16,56,14.30
2015,03,27,16,57,14.20
2015,03,27,16,58,14.20
2015,03,27,16,59,14.10
2015,03,27,17,00,14.10
2015,03,27,17,01,14.10
2015,03,27,17,02,14.10
2015,03,27,17,03,14.10
2015,03,27,17,04,14.10
2015,03,27,17,05,14.10
2015,03,27,17,06,14.10
2015,03,27,17,07,14.10
2015,03,27,17,08,14.10
2015,03,27,17,09,14.10
2015,03,27,17,10,14.10
2015,03,27,17,11,14.10
2015,03,27,17,12,14.10
2015,03,27,17,13,14.10
2015,03,27,17,14,14.20
2015,03,27,17,15,14.20
2015,03,27,17,16,14.20
2015,03,27,17,17,14.30
2015,03,27,17,18,14.30
2015,03,27,17,19,14.40
2015,03,27,17,20,14.40
2015,03,27,17,21,14.50
2015,03,27,17,22,14.50
2015,03,27,17,23,14.60